Regional Weather Roundup
Issued by NWS

Home | Current Version | Previous Version | Graphics & Text | Print | Product List | Glossary On
Versions: 1 2 3 4 5 6 7 8 9 10 11 12 13 14 15 16 17 18 19 20 21 22 23 24 25 26 27 28 29 30 31 32 33 34 35 36 37 38 39 40 41 42 43 44 45 46 47 48 49 50
000
ASUS43 KTOP 290108
RWRKS

WEATHER ROUNDUP FOR KANSAS
NATIONAL WEATHER SERVICE GOODLAND KS
800 PM CDT SAT MAR 28 2015

NOTE:  "FAIR" INDICATES FEW OR NO CLOUDS BELOW 12,000 FEET WITH NO
SIGNIFICANT WEATHER AND/OR OBSTRUCTIONS TO VISIBILITY.

KSZ001>006-013>018-027>032-041>047-290200-
NORTHWEST KANSAS

CITY           SKY/WX    TMP DP  RH WIND       PRES   REMARKS
GOODLAND       CLEAR     71  23  16 S9        29.87S
HAYS           CLEAR     64  37  36 SE15      29.92F
HILL CITY      CLEAR     68  38  33 SE13      29.88F
RUSSELL        CLEAR     63  40  42 SE13      29.92F
$$

KSZ061>065-074>080-084>089-290200-
SOUTHWEST KANSAS

CITY           SKY/WX    TMP DP  RH WIND       PRES   REMARKS
DODGE CITY     CLEAR     71  36  27 SE15      29.93F
ELKHART          N/A     76  30  18 S6          N/A
GARDEN CITY    CLEAR     70  35  27 SE9       29.90S
GREAT BEND     CLEAR     63  39  42 SE12      29.95F
LIBERAL        CLEAR     73  34  23 SE10      29.93S
PRATT          CLEAR     64  41  42 SE9       29.98S
$$

KSZ066>073-081>083-090>101-290200-
SOUTHEAST KANSAS

CITY           SKY/WX    TMP DP  RH WIND       PRES   REMARKS
CHANUTE        CLEAR     53  40  61 E14       30.07S
COFFEYVILLE    CLEAR     58  43  57 E7        30.05S
HUTCHINSON     CLEAR     64  39  39 SE9       29.97F
MEDICINE LODGE   N/A     68  43  40 SE8       29.96S
NEWTON         CLEAR     59  37  44 SE9       30.02S
PARSONS        CLEAR     56  42  59 E5        30.07R
WICHITA INTL   CLEAR     65  39  38 SE13      29.98S
WICHITA JABRA  CLEAR     62  39  42 SE9       30.00R
WICHITA MCCONL CLEAR     64  40  41 E9        29.99R
WINFIELD       CLEAR     65  41  41 SE15      30.01R
$$

KSZ007>012-019>026-033>040-048>060-102>105-290200-
NORTHEAST KANSAS

CITY           SKY/WX    TMP DP  RH WIND       PRES   REMARKS
CONCORDIA      CLEAR     57  36  45 SE13      29.97S
EMPORIA        CLEAR     53  37  54 E12       30.04S
LAWRENCE       CLEAR     48  32  53 SE13      30.09F
MANHATTAN      CLEAR     56  35  45 SE8       30.02S
MARYSVILLE     CLEAR     52  34  50 SE14      30.00F
OLATHE IND     CLEAR     47  32  56 SE9       30.11F
OLATHE EXE     CLEAR     47  31  53 SE10      30.10F
SALINA         CLEAR     62  37  39 SE10      29.98S
TOPEKA BILLARD CLEAR     50  32  50 E12       30.07F
TOPEKA FORBES  CLEAR     51  33  50 SE12      30.06F
$$



USA.gov is the U.S. government's official web portal to all federal, state and local government web resources and services.